Location: Beedon
(51.4833°N, 1.3000°W)
Time: 15:15:18
(UTC+00:00)

Daily predictions for brighter satellites

Satellite Brightness Start Highest point End
(mag) Time Altitude Azimuth Time Altitude Azimuth Time Altitude Azimuth
ERS-1 Rocket 3.4 20:57:56 10° SE 21:02:48 53° ENE 21:07:43 10° N
GEOS 3 Rocket 4.1 20:58:33 10° NE 21:03:41 43° SE 21:08:48 10° SSW
Cosmos 2278 Rocket 3.3 21:01:32 10° NNW 21:06:46 36° NE 21:11:58 10° ESE
USA 215 3.9 21:01:33 10° ENE 21:07:19 32° SE 21:13:04 10° SSW
ATLAS 5 CENTAUR R/B 1.7 21:07:12 10° SSW 21:11:14 50° SE 21:15:48 10° NE
Cosmos 1844 Rocket 3.0 21:06:18 10° NW 21:11:51 67° WSW 21:17:22 10° SSE
Gblst 52 Del rocket 4.3 21:07:02 10° W 21:12:38 78° SSW 21:18:50 10° ESE
Cosmos 1400 Rocket 2.8 21:08:48 10° NNW 21:12:50 86° WSW 21:16:46 10° S
USA 245 3.4 21:09:35 10° S 21:12:57 72° WSW 21:17:17 10° NNW
Meteor 2-10 Rocket 4.4 21:10:55 10° NNW 21:15:49 49° W 21:20:51 10° S
Cosmos 1758 Rocket 3.6 21:11:21 10° S 21:15:51 84° E 21:20:22 10° NNE
Lacrosse 5 rocket 2.7 21:14:49 10° W 21:18:54 42° NNW 21:22:46 10° ENE
SPOT 5 3.1 21:14:32 10° SSE 21:19:29 63° ENE 21:24:13 10° N
BREEZE-M DEB (TANK) 4.2 21:15:39 10° W 21:19:35 76° S 21:34:23 10° E
Spot 2 Rocket 3.9 21:18:19 10° S 21:23:22 63° WSW 21:28:29 10° NNW
USA 81 4.4 21:20:50 10° SSE 21:25:55 51° E 21:31:02 10° NNE
BREEZE M DEB (TANK) 3.2 21:23:40 10° W 21:26:03 24° SSW 21:27:39 11° SSE
Cosmos 2181 Rocket 4.1 21:21:14 10° N 21:27:37 72° ENE 21:33:51 10° SSE
Landsat 7 4.3 21:23:10 10° S 21:27:52 61° WSW 21:32:37 10° NNW
SPOT 1/Viking Rocket 4.0 21:32:53 10° S 21:38:00 62° W 21:43:08 10° NNW
Cosmos 1953 Rocket 3.5 21:34:38 10° S 21:38:57 80° E 21:43:18 10° NNE
NOSS 7 (D) 4.4 21:37:32 10° SW 21:40:16 60° NW 21:42:54 10° NE
CZ-4C R/B 4.4 21:36:19 10° NW 21:41:49 31° N 21:48:13 10° ENE
USA 267 3.4 21:35:16 10° ESE 21:41:51 86° NNE 21:48:28 10° WNW
SAR-Lupe-2 3.6 21:39:21 10° NNE 21:42:59 87° W 21:46:34 10° SSW
Cosmos 1328 4.3 21:39:49 10° SSW 21:43:45 61° WNW 21:47:43 10° N
Cosmos 2084 3.6 21:39:38 10° NW 21:44:07 78° SW 21:48:05 13° SE
Cosmos 1842 Rocket 3.8 21:40:57 10° N 21:45:16 56° ENE 21:49:02 13° SSE
Cosmos 2322 Rocket 3.6 21:40:40 10° WSW 21:46:00 42° NW 21:51:21 10° NNE
Cosmos 1455 4.3 21:42:57 10° NW 21:46:05 24° W 21:49:12 10° SW
Cosmos 1825 Rocket 4.4 21:50:24 10° SSW 21:54:44 51° WNW 21:59:07 10° N
ATLAS CENTAUR R/B 1.3 21:51:57 10° NW 21:55:37 59° SW 21:58:26 15° SSE
Cosmos 1825 4.4 21:58:10 10° ESE 22:00:01 13° E 22:01:52 10° NE
COSMOS 2428 2.7 22:00:07 10° SSW 22:05:44 67° ESE 22:11:23 10° NE
Cosmos 1869 3.3 22:02:16 10° N 22:06:16 74° E 22:09:22 16° SSE
Cosmos 2322 3.9 22:03:53 10° SW 22:09:37 78° WNW 22:15:23 10° NNE
NOSS 3-4 (A) 3.9 22:05:41 10° NW 22:12:31 76° NE 22:19:47 11° SE
NOSS 3-4 (C) 4.0 22:05:47 10° NW 22:12:37 76° NE 22:19:55 11° SE
NOSS 0 Rocket 4.3 22:07:31 10° S 22:13:15 44° ESE 22:19:03 10° NE
Terra 2.2 22:10:34 12° S 22:14:51 61° WSW 22:19:35 10° NNW
Cosmos 2237 Rocket 2.8 22:14:58 14° S 22:19:14 37° ESE 22:24:27 10° NE
BREEZE-M DEB 4.4 22:15:41 10° W 22:19:33 53° SSW 22:33:27 10° SE
Atlas Centaur 2 4.4 22:20:13 10° SSW 22:21:18 10° S 22:21:21 10° S
Cosmos 2219 Rocket 2.2 22:15:55 10° SSW 22:21:31 89° WNW 22:27:11 10° NNE
Cosmos 2344 4.3 22:16:02 13° S 22:21:42 32° ESE 22:28:30 10° NE
Cosmos 1538 Rocket 4.1 22:17:27 10° SSW 22:22:50 85° WNW 22:28:12 10° NNE
Cosmos 2360 Rocket 3.6 22:18:32 10° WSW 22:23:51 41° NW 22:29:14 10° NNE
NOSS 3-3 (A) 3.9 22:18:05 10° SW 22:24:00 75° SE 22:30:45 10° NE
NOSS 3-3 (C) 3.9 22:18:12 10° SSW 22:24:07 74° SE 22:30:52 10° NE
Cosmos 1315 Rocket 4.0 22:22:34 10° NNW 22:26:23 39° W 22:29:55 12° SSW
Thor Agena Rocket 4.1 22:25:10 10° NNE 22:30:00 41° E 22:33:18 19° SSE
Meteor 2-2 Rocket 4.4 22:25:26 10° NNW 22:31:16 74° W 22:35:55 16° S
Cosmos 2333 Rocket 2.5 22:25:59 10° SW 22:31:40 74° WNW 22:37:27 10° NNE
Cosmos 2184 Rocket 4.0 22:27:10 11° S 22:33:08 88° ESE 22:39:30 10° N
Cosmos 2221 3.0 22:31:43 10° NNW 22:36:02 57° W 22:39:20 16° S
BREEZE-M DEB (TANK) 1.8 22:35:04 10° W 22:39:48 58° SSW 22:41:22 21° ESE
Iridium 2 3.9 22:36:27 10° N 22:40:15 58° E 22:42:26 23° SSE
Cosmos 1371 Rocket 4.1 22:35:08 10° NNW 22:40:25 73° ENE 22:44:15 19° SE
ATLAS 2AS CENTAUR R/B 2.9 22:32:47 10° NW 22:40:31 88° SW 22:46:25 16° SE
GEOS 3 Rocket 4.5 22:36:33 10° NE 22:41:49 56° NW 22:47:05 10° WSW
EO 1 Del DPAF 3.8 22:39:34 10° NNE 22:43:09 40° E 22:45:00 23° SSE
Cosmos 1892 2.6 22:41:59 20° S 22:44:33 86° E 22:48:23 10° NNE
Aureole 2 Rocket 3.1 22:44:57 10° N 22:47:34 34° ENE 22:48:59 21° ESE
Cosmos 1606 3.8 22:46:31 10° N 22:50:06 35° ENE 22:52:19 19° SE
USA 215 3.2 22:44:19 10° ENE 22:50:56 83° SSE 22:57:31 10° WSW
Cosmos 2278 Rocket 2.6 22:45:35 10° NW 22:51:06 53° WSW 22:54:59 19° S
Cosmos 2112 Rocket 4.2 22:48:24 18° S 22:52:14 57° ESE 22:57:30 10° NNE
Cosmos 2297 4.1 22:46:52 10° NNW 22:52:35 60° NE 22:57:11 16° SE
ATLAS 5 CENTAUR R/B 3.3 22:51:57 10° W 22:56:02 37° NNW 23:00:43 10° NE
Cosmos 158 Rocket 3.9 22:52:56 19° S 22:56:23 63° ESE 23:01:16 10° NNE
Lacrosse 5 rocket 2.6 22:54:45 10° WNW 22:58:40 41° N 23:02:23 10° E
Cosmos 1943 Rocket 3.3 22:53:45 10° NNW 22:59:04 38° NE 23:04:20 10° ESE
Spot 4 3.8 22:59:07 22° S 23:02:13 80° WSW 23:07:02 10° NNW
SL-16 R/B 3.1 23:00:47 20° SSE 23:03:38 32° ESE 23:08:37 10° NE
Cosmos 2058 3.3 23:01:11 17° SSW 23:04:20 62° WNW 23:08:27 10° N
Cosmos 2056 Rocket 3.6 22:58:56 10° NNW 23:04:22 87° WSW 23:07:58 22° SSE
Cosmos 1408 2.4 23:03:24 25° S 23:05:22 88° W 23:08:58 10° N
Nadezhda 3 Rocket 4.3 23:02:53 10° NNW 23:09:12 64° W 23:13:54 18° S
Cosmos 2154 Rocket 4.1 23:07:49 15° SSW 23:13:02 74° WNW 23:19:18 10° N
Cosmos 2341 Rocket 4.0 23:11:46 21° S 23:16:07 72° E 23:22:19 10° NNE
Cosmos 1076 Rocket 4.1 23:12:54 16° SSW 23:16:09 54° WNW 23:20:22 10° N
Cosmos 332 Rocket 4.5 23:13:17 10° NNW 23:17:58 48° ENE 23:21:28 17° SE
Cosmos 1680 Rocket 3.6 23:15:57 14° SSW 23:20:36 80° WNW 23:25:58 10° NNE
Meteor 2-3 Rocket 4.5 23:21:02 21° SSE 23:24:19 40° E 23:29:36 10° NNE
USA 267 3.8 23:21:24 21° SSE 23:25:18 40° SW 23:31:26 10° WNW
Cosmos 2151 2.9 23:23:52 25° S 23:26:18 89° ESE 23:30:37 10° N
Helios 1A 3.6 23:24:53 21° SE 23:27:20 48° ENE 23:31:23 10° N
Cosmos 1452 Rocket 3.8 23:26:09 10° NNW 23:31:25 64° ENE 23:35:06 20° SE
CZ-4C R/B 3.6 23:25:11 10° NW 23:31:47 54° NE 23:39:33 10° ESE
BREEZE-M DEB (TANK) 4.3 23:30:25 10° W 23:32:16 12° WSW 23:32:45 12° SW
COSMOS 2455 3.1 23:27:02 10° NW 23:33:05 69° NE 23:38:24 14° SE
Cosmos 1825 2.5 23:32:56 24° SSW 23:35:02 62° WNW 23:38:48 10° N
SL-8 Rocket 4.0 23:30:59 22° S 23:35:04 74° E 23:41:13 10° NNE
IRIDIUM 114 4.4 23:32:35 25° SSE 23:35:41 70° E 23:40:55 10° N
Cosmos 1340 3.2 23:34:23 29° SSE 23:35:49 43° E 23:39:25 10° NNE
Cosmos 1933 3.3 23:32:14 10° N 23:36:18 82° E 23:38:13 30° SSE
ALOS 2 2.7 23:35:27 27° S 23:37:46 69° WSW 23:42:10 10° NNW
Cosmos 1151 Rocket 3.0 23:33:28 10° N 23:37:50 90° E 23:40:03 28° S
Cosmos 1408 Rocket 4.0 23:35:56 26° SSE 23:38:02 49° E 23:42:18 10° NNE
APEX 2.4 23:40:52 10° NNW 23:43:36 72° ENE 23:44:22 42° SE
Cosmos 2369 Rocket 2.8 23:38:17 10° NNW 23:43:46 52° NE 23:48:49 12° SE
Cosmos 1727 Rocket 4.2 23:37:34 10° N 23:43:48 67° ENE 23:48:04 21° SSE
IRIDIUM 103 4.3 23:41:42 25° S 23:44:49 83° E 23:50:05 10° N
Cosmos 1980 4.2 23:39:17 10° SW 23:44:50 58° NW 23:50:27 10° NNE
Cosmos 44 3.2 23:43:38 28° S 23:45:41 54° SE 23:50:03 10° NE
GP-B 3.1 23:41:59 10° N 23:46:26 78° W 23:48:50 27° S
Cosmos 371 Rocket 3.3 23:42:51 10° NNW 23:47:44 77° WSW 23:50:25 26° SSE
SL-4 R/B 0.5 23:48:59 67° NW 23:48:59 67° NW 23:50:52 10° NNW
COSMOS 2428 4.5 23:45:28 10° WSW 23:50:28 31° NW 23:55:29 10° NNE
Helios 1B rocket 4.1 23:50:19 10° NE 23:53:38 23° E 23:55:23 17° SE
CREW DRAGON DEMO-1 DEB 2.9 23:54:49 46° S 23:55:11 50° SSE 23:58:10 10° E
